{"data":{"norad_id":53576,"intl_designator":"2022-101BB","name":"STARLINK-4581","alt_names":[],"object_type":"PAYLOAD","status":"ACTIVE","operator":null,"country":"US","launch_date":"2022-08-19","launch_site_code":"AFETR","launch_vehicle":null,"mission":null,"orbit_class":"UNKNOWN","rcs_meters":null,"size_class":null,"mass_kg":null,"dimensions":null,"purposes":["comms"],"wikipedia_slug":null,"has_3d_model":false,"image_url":null,"decayed_at":null,"tle_current":{"epoch":"2026-09-20T13:25:56.423712Z","epoch_age_seconds":73575,"freshness":"FRESH","line1":"1 53576U 22101BB  26263.55968083  .00000100  00000+0  14992-4 0  9994","line2":"2 53576  53.1593 249.5609 0001264  76.4941 283.6201 15.31699819226816","mean_motion":15.31699819,"eccentricity":0.0001264,"inclination_deg":53.1593,"raan_deg":249.5609,"arg_perigee_deg":76.4941,"mean_anomaly_deg":283.6201,"bstar":1.4992e-5,"rev_number":22681,"period_min":94.013199070568,"perigee_km":469.87483665689,"apogee_km":471.60623289768,"semimajor_km":6848.8775347773,"source":"CELESTRAK","updated_at":"2026-09-21T09:00:32.932707Z"}}}